Погода в Болниси

Погода в Болниси : погода сейчас, прогноз погоды и архив. Всё, что Вы хотите узнать о погоде в Болниси!

Поиск расширенной информации на нашем сайте:

Другие новости

Новости СМИ2

Главная страница сайта

Новости сайта

03.07.2017

Напоминаем, что на нашем специализированном сайте Метеоцентр.Азия вы можете получить высокодетализированные автоматические прогнозы погоды по пунктам России, СНГ и мира в авиационном формате (включающие направление и скорость ветра, видимость, явления погоды, количество и форму облачности, нижнюю и верхнюю границу облачности).

Рекомендуем: Свадьба на Бали и других островах

Погода в Болниси - сегодня

Время (UTC), дата Ветер
(°,м/с) 
Видим.   Явления Облачность Т
(°С)
Тd
(°С)
f(%) Тe
(°С)
Pmin
(гПа)
dP
(гПа)
Po
(мм)
O2
(г/м3)
Тmin Tmax R s Состояние
почвы
03 10.06.18 тихо ()   20000 м    9/8 1000 м средняя 
[Sc|Ac trans]
+16.1 +14.9 93 +26  1010.5  -0.1  712  268         
09 10.06.18 160 (Ю) 20000 м    4/4 1000 м 
[Cu med, cong]
+23.5 +12.9 51 +30  1006.5  -2  710  261           
21 10.06.18 тихо ()   н/о    10/10 600 м 
[Sc]
+17.9 +13.5 75 +25  1007.7  0.1  710  266           
03 11.06.18 тихо ()   20000 м    9/9 1000 м 
[Sc]
+16.7 +13.5 81 +24  1008.4  710  267      0.4     
09 11.06.18 140 (ЮВ) 20000 м    4/4 1000 м 
[Cu med, cong]
+24.5 +13.4 50 +32  1006.3  -1.1  710  260           
21 11.06.18 тихо ()   н/о    8/0 1000 м средняя, верхняя 
[Ac trans|Ci fib]
+19.3 +14.1 72 +28  1007.3  1.1  710  264           
09 12.06.18 140 (ЮВ) 20000 м    9/9 1000 м 
[Sc]
+20.7 +12.6 60 +27  1009.7  -0.1  712  264           
21 12.06.18 тихо ()   н/о    9/9 1000 м 
[Sc]
+17.5 +12.6 73 +23  1012  0.2  713  267           
09 13.06.18 070 (В) 20000 м    9/9 1000 м 
[Sc]
+22.2 +13.2 57 +29  1010.7  -0.2  713  263           
21 13.06.18 тихо ()   н/о    8/0 1000 м средняя, верхняя 
[Ac trans|Ci fib]
+18.9 +13.4 70 +26  1010.2  0.9  712  266           
09 14.06.18 090 (В) 20000 м    8/0 1000 м средняя 
[Ac trans]
+25.5 +14.5 51 +35  1008.5  -0.6  712  259           
15 14.06.18 тихо ()   20000 м    9/0 1000 м средняя, верхняя 
[Ac trans|Ci fib]
+26.3 +13 44 +33  1007.9  -0.1  711  259    +6.9       
21 14.06.18 тихо ()   н/о    10/10 600 м 
[Sc]
+20.3 +15.1 72 +31  1010  0.6  712  264           
09 15.06.18 090 (В) 20000 м    1/1 1000 м средняя 
[Cu med, cong|Ac trans]
+26.6 +15.5 51 +38  1007.7  -1.3  711  258           
21 15.06.18 270 (З) н/о    3/0 1000 м средняя 
[Ac trans]
+22.5 +15.7 65 +34  1008.1  0.6  711  261           
09 16.06.18 090 (В) 20000 м    6/4 1000 м средняя, верхняя 
[Cu med, cong|Ac trans|Ci fib]
+29.9 +15.9 43 +42  1003.8  -0.8  709  254           
21 16.06.18 090 (В) н/о  {гроза}  9/4 1000 м средняя, верхняя 
[Sc|Ac trans|Ci fib]
+19.7 +15.3 76 +32  1008.3  0.6  711  264           
03 17.06.18 270 (З) 20000 м    6/0 1000 м средняя 
[Ac trans]
+17.3 +13.9 80 +27  1007.8  0.3  710  266      0.0     
09 17.06.18 110 (В) 20000 м    5/5 1000 м 
[Sc]
+29.6 +16.9 46 +44  1003  -1.7  709  254           
21 17.06.18 270 (З) н/о  {гроза}  3/0 1000 м средняя 
[Ac trans]
+16.9 +13.5 80 +26  1007.4  0.2  710  267           
03 18.06.18 тихо ()   20000 м    1/0 верхняя 
[Ci fib]
+16.9 +13.3 79 +24  1007.2  710  267         
09 18.06.18 090 (В) 20000 м    8/3 1000 м средняя, верхняя 
[Cu med, cong|Ac trans|Ci fib]
+26.4 +14.6 48 +36  1004.7  -0.4  709  258           
21 18.06.18 тихо ()   н/о  {гроза}  8/4 1000 м средняя 
[Sc|Ac trans]
+17.3 +15.8 91 +29  1009.2  3.1  711  266           
03 19.06.18 230 (ЮЗ) 20000 м  {ливн. осадки}  8/4 1000 м средняя 
[Sc|Ac trans]
+17.8 +16.4 92 +32  1010.2  -0.2  712  266      16     
09 19.06.18 180 (Ю) 20000 м    4/1 1000 м верхняя 
[Cu med, cong|Ci fib]
+26.3 +13.8 46 +34  1008.6  -0.7  712  259           
Время (UTC), дата Ветер
(°,м/с) 
Видим.   Явления Облачность Т
(°С)
Тd
(°С)
f(%) Тe
(°С)
Pmin
(гПа)
dP
(гПа)
Po
(мм)
O2
(г/м3)
Тmin Tmax R s Состояние
почвы

Для получения пояснительной информации подведите курсор к названию столбца.

ПОГОДА в Болниси - архив

Всё, что Вы хотите узнать о погоде в Болниси - удобно и подробно!

Выберите нужную дату (начиная с 1 января 2015* года) и нажмите кнопку "Найти".
Будут отображены архивные сводки погоды по пункту Болниси, начиная с указанной даты.


Отображать данные в формате CSV (для использования в таблицах Excel)


Внимание! Наш архив погоды предназначен исключительно для личного некоммерческого использования в познавательных целях. Если Вам необходимы официальные справки о состоянии погоды (для производственных, юридических, коммерческих и т.п. целей), обращайтесь в органы Росгидромета.

*Примечание: данная дата относится к архиву по метеостанциям СССР (Россия, СНГ, Балтия).
Архив по метеостанциям Зарубежной Европы и Азии (кроме Китая) хранится 10 дней, по другим регионам земного шара (Китай, Африка, Америка, Австралия, Океания) - 1 день.

Болниси - район местоположения метеостанции


Название, широта, долгота, высота метеостанции:
Болниси 41.4°ш. 44.6°д. 534 м над ур. моря [Грузия]

Дополнительная информация

В oтличие oт бoльшинства пoгoдных сайтoв мы публикуем пoдрoбную метеoинфoрмацию в детальнoм прoфессиoнальнoм фoрмате.

Характеристики температуры и влажнoсти вoздуха измеряются на высoте 2 м в тени вдали oт зданий и деревьев.
Скoрoсть ветра измеряется на высoте 10 м (на урoвне рoста челoвека скoрoсть ветра ниже в 1.5-2 раза). Если метеoстанция нахoдится в гoрoде или в лесу, тo скoрoсть ветра занижена на 2-4 м/с пo сравнению с oткрытым местoм. Скoрoсть ветра над акватoриями крупных рек и oзёр, а также на вершинах хoлмoв на 2-5 м/с выше, чем в oбычных услoвиях.
Атмoсфернoе давление в разных тoчках местнoсти мoжет значительнo oтличаться oт давления на метеoстанции, в зависимoсти oт услoвий рельефа (при пoдъёме на 10 м давление пoнижается примернo на 1 мм рт.ст.).